This is the latest recevied weather packets stored in our database for station/object XE2B-20. If no packets are shown the sender has not sent any weather packets the latest 10 day(s).
| Time | Temp. | Humidity | Pressure | Rain* | Wind** | Luminosity | Snow |
|---|---|---|---|---|---|---|---|
| 1788236215 | 17.78° C | 66% | 810.4 hPa | - | - | - | - |
| 1788234715 | 17.78° C | 66% | 809.9 hPa | - | - | - | - |
| 1788233216 | 17.78° C | 67% | 809.6 hPa | - | - | - | - |
| 1788231718 | 18.89° C | 64% | 809.1 hPa | - | - | - | - |
| 1788230219 | 18.89° C | 64% | 808.6 hPa | - | - | - | - |
| 1788228721 | 18.33° C | 65% | 808.4 hPa | - | - | - | - |
| 1788227222 | 18.89° C | 65% | 808 hPa | - | - | - | - |
| 1788225725 | 19.44° C | 65% | 807.5 hPa | - | - | - | - |
| 1788224227 | 20.56° C | 64% | 807.2 hPa | - | - | - | - |
| 1788222728 | 21.11° C | 64% | 807.2 hPa | - | - | - | - |
| 1788221227 | 21.11° C | 65% | 807.1 hPa | - | - | - | - |
| 1788219739 | 22.22° C | 64% | 807.1 hPa | - | - | - | - |
| 1788218234 | 23.89° C | 62% | 807.2 hPa | - | - | - | - |
| 1788216737 | 23.33° C | 65% | 807.3 hPa | - | - | - | - |
| 1788215240 | 27.78° C | 59% | 807.3 hPa | - | - | - | - |
| 1788213742 | 27.78° C | 59% | 807.5 hPa | - | - | - | - |
| 1788212256 | 26.11° C | 62% | 807.9 hPa | - | - | - | - |
| 1788210743 | 27.78° C | 62% | 808.1 hPa | - | - | - | - |
| 1788209246 | 30° C | 60% | 808.5 hPa | - | - | - | - |
| 1788207751 | 30° C | 60% | 808.7 hPa | - | - | - | - |
| 1788206247 | 30° C | 61% | 809.1 hPa | - | - | - | - |
| 1788204749 | 28.89° C | 62% | 809.6 hPa | - | - | - | - |
| 1788203286 | 28.89° C | 60% | 810 hPa | - | - | - | - |
| 1788203250 | 28.89° C | 60% | 810 hPa | - | - | - | - |
| 1788201750 | 26.11° C | 64% | 810.3 hPa | - | - | - | - |
* Rain since midnight (hover to see other rain measurements)
** Current wind speed in m/s (hover to see current wind gust speed)